Home   Weather   Buenaventura   Past weeks

Flag for Colombia Past Weather in Buenaventura, Colombia — Yesterday and Last 2 Weeks

Now
82 °F

Scattered clouds.


Feels Like: 86 °F
Forecast: 76 / 90 °F
Wind: 2 mph from North

Location: Cali / Alfonso Bonillaaragon

Current Time: Apr 23, 2017 at 11:18:54 am

Latest Report: Apr 23, 2017 at 10:00 am


Visibility: N/A

Pressure: 30.01 "Hg

Humidity: 66%

Dew Point: 70 °F

Location of BuenaventuraLocation

Past Weather in Buenaventura — Graph

°F

Buenaventura Temperature Yesterday

Maximum temperature yesterday: 90 °F (at 2:00 pm)
Minimum temperature yesterday: 64 °F (at 5:00 am)
Average temperature yesterday: 76 °F

High & Low Weather Summary for the Past Weeks

 TemperatureHumidityPressure
High90 °F (Apr 13, 3:00 pm)100% (Apr 9, 12:00 am)30.12 "Hg (Apr 9, 12:00 am)
Low64 °F (Apr 22, 5:00 am)22% (Apr 13, 9:00 pm)29.79 "Hg (Apr 13, 4:00 pm)
Average74 °F85%29.97 "Hg
* Reported Apr 8 10:00 am — Apr 23 10:00 am, Buenaventura, Weather by CustomWeather, © 2017

Note: Actual official high and low records may vary slightly from our data, if they occured in-between our weather recording intervals... More about our weather records

Advertising

Buenaventura Weather History for the Previous 24 Hours

Scroll right to see more
 ConditionsComfort  
Time TempWeatherWind HumidityBarometerVisibility
10:00 am
Sun, Apr 23
82 °FScattered clouds.2 mph66%30.01 "HgN/A
9:00 am79 °FPartly sunny.3 mph70%30.02 "HgN/A
8:00 am72 °FBroken clouds.3 mph88%30.01 "Hg6 mi
7:00 am70 °FPartly sunny.No wind100%29.99 "Hg6 mi
6:00 am66 °FScattered clouds.2 mph100%29.97 "HgN/A
5:30 am68 °FPartly cloudy.2 mph100%29.97 "HgN/A
5:00 am66 °FPassing clouds.3 mph100%29.95 "HgN/A
4:00 am66 °FClear.2 mph100%29.93 "Hg10 mi
3:00 am68 °FClear.No wind100%29.93 "Hg10 mi
2:00 am68 °FClear.5 mph100%29.93 "Hg10 mi
1:00 am70 °FClear.6 mph100%29.95 "Hg10 mi
12:00 am73 °FClear.5 mph89%29.98 "Hg10 mi
11:00 pm
Sat, Apr 22
73 °FPassing clouds.5 mph89%29.99 "HgN/A
10:00 pm72 °FPassing clouds.2 mph88%29.99 "HgN/A
9:00 pm75 °FPassing clouds.6 mph78%29.96 "HgN/A
8:00 pm75 °FPassing clouds.7 mph83%29.91 "HgN/A
7:00 pm79 °FPassing clouds.9 mph74%29.90 "HgN/A
6:00 pm82 °FScattered clouds.9 mph70%29.87 "HgN/A
5:00 pm88 °FScattered clouds.8 mph55%29.84 "HgN/A
4:00 pm86 °FPartly sunny.5 mph55%29.84 "HgN/A
3:00 pm90 °FScattered clouds.3 mph46%29.86 "HgN/A
2:00 pm90 °FPassing clouds.5 mph46%29.90 "HgN/A
1:00 pm88 °FPassing clouds.3 mph52%29.94 "HgN/A
12:00 pm86 °FScattered clouds.3 mph55%29.99 "HgN/A
11:00 am82 °FScattered clouds.3 mph66%30.02 "HgN/A
Weather by CustomWeather, © 2017

See weather overviewHow to use our weather pages